Change the Weather History Date:

Friday, April 19, 2013

  Actual Average Record
Temperature  
Mean Temperature 64 °F 66 °F  
Max Temperature 79 °F 79 °F 92 °F (1937)
Min Temperature 48 °F 54 °F 39 °F (2001)
Degree Days  
Heating Degree Days 1 2  
Month to date heating degree days 44 58  
Since 1 July heating degree days 1592 1828  
Cooling Degree Days 0 3  
Month to date cooling degree days 54 41  
Year to date cooling degree days 98 72  
Growing Degree Days 12 (Base 50)    
Moisture  
Dew Point 57 °F    
Average Humidity 89    
Maximum Humidity 94    
Minimum Humidity 77    
Precipitation  
Precipitation 0.82 in 0.13 in 1.43 in (1951)
Month to date precipitation 3.75 2.51  
Year to date precipitation 11.75 17.79  
Sea Level Pressure  
Sea Level Pressure 29.98 in    
Wind  
Wind Speed 13 mph (West)    
Max Wind Speed 39 mph    
Max Gust Speed 47 mph    
Visibility 8 miles    
Events Rain    
T = Trace of Precipitation, MM = Missing Value Source: NWS Daily Summary

Daily Weather History Graph

Daily Weather History Graph

Search for Another Location

Airport or City:

Trip Planner

Search our weather history database for the weather conditions in past years. The results will help you decide how hot, cold, wet, or windy it might be!

Date:

Astronomy

Apr. 19, 2013 Rise Set
Actual Time 6:08 AM CDT 7:13 PM CDT
Civil Twilight 5:43 AM CDT 7:38 PM CDT
Nautical Twilight 5:14 AM CDT 8:08 PM CDT
Astronomical Twilight 4:43 AM CDT 8:38 PM CDT
Moon 1:20 PM CDT (4/19) 1:59 AM CDT (4/19)
Length of Visible Light 13h 54m
Length of Day
13h 04m
First Quarter, 62% of the Moon is Illuminated
Apr 19
First Quarter
Apr 25
Full
May 2
Last Quarter
May 9
New
May 17
First Quarter

Hourly Weather History & Observations

Time (CDT) Temp. Dew Point Humidity Pressure Visibility Wind Dir Wind Speed Gust Speed Precip Events Conditions
12:41 AM 69.8 °F 66.2 °F 88% 29.95 in 10.0 mi South 10.4 mph - N/A   Mostly Cloudy
12:53 AM 70.0 °F 66.0 °F 87% 29.93 in 10.0 mi South 11.5 mph - N/A   Overcast
1:53 AM 70.0 °F 66.9 °F 90% 29.91 in 10.0 mi South 12.7 mph - N/A   Overcast
2:20 AM 71.6 °F 66.2 °F 83% 29.91 in 10.0 mi South 11.5 mph - N/A   Overcast
2:48 AM 71.6 °F 68.0 °F 88% 29.91 in 10.0 mi South 12.7 mph - N/A   Overcast
2:53 AM 71.1 °F 68.0 °F 90% 29.89 in 10.0 mi South 12.7 mph - N/A   Overcast
3:28 AM 71.6 °F 68.0 °F 88% 29.91 in 10.0 mi SSW 11.5 mph - N/A   Overcast
3:53 AM 72.0 °F 68.0 °F 87% 29.89 in 10.0 mi South 10.4 mph - N/A   Overcast
4:29 AM 71.6 °F 68.0 °F 88% 29.90 in 10.0 mi South 11.5 mph - N/A   Overcast
4:53 AM 72.0 °F 69.1 °F 91% 29.89 in 10.0 mi SSW 11.5 mph - N/A   Overcast
5:53 AM 72.0 °F 69.1 °F 91% 29.91 in 10.0 mi South 10.4 mph - N/A   Overcast
6:53 AM 72.0 °F 69.1 °F 91% 29.91 in 9.0 mi South 11.5 mph - N/A   Overcast
7:53 AM 73.0 °F 69.1 °F 87% 29.92 in 10.0 mi South 11.5 mph - N/A   Overcast
8:53 AM 77.0 °F 70.0 °F 79% 29.91 in 10.0 mi South 16.1 mph - N/A   Overcast
9:14 AM 75.2 °F 69.8 °F 83% 29.92 in 10.0 mi South 15.0 mph 25.3 mph 0.00 in Rain Light Rain
9:36 AM 73.4 °F 71.6 °F 94% 29.92 in 2.5 mi South 11.5 mph - 0.05 in Rain Light Rain
9:43 AM 73.4 °F 71.6 °F 94% 29.92 in 5.0 mi SSW 11.5 mph - 0.05 in Rain Light Rain
9:53 AM 75.9 °F 72.0 °F 87% 29.90 in 10.0 mi SSW 15.0 mph 19.6 mph 0.05 in   Mostly Cloudy
10:47 AM 69.8 °F 64.4 °F 83% 29.94 in 8.0 mi WNW 39.1 mph 47.2 mph N/A   Overcast
10:53 AM 62.1 °F 57.9 °F 86% 29.93 in 2.5 mi NW 32.2 mph 47.2 mph 0.05 in Rain Light Rain
11:00 AM 60.8 °F 57.2 °F 88% 29.96 in 1.0 mi NW 25.3 mph 39.1 mph 0.13 in Rain Light Rain
11:05 AM 59.0 °F 57.2 °F 94% 29.96 in 3.0 mi NW 24.2 mph 33.4 mph 0.13 in Rain Light Rain
11:17 AM 59.0 °F 57.2 °F 94% 29.96 in 4.0 mi NW 28.8 mph 36.8 mph 0.18 in Rain Light Rain
11:53 AM 57.9 °F 55.0 °F 90% 29.98 in 10.0 mi NW 18.4 mph 29.9 mph 0.18 in   Scattered Clouds
12:24 PM 57.2 °F 53.6 °F 88% 30.00 in 10.0 mi NW 16.1 mph 29.9 mph N/A   Mostly Cloudy
12:32 PM 57.2 °F 53.6 °F 88% 30.00 in 10.0 mi WNW 13.8 mph - N/A   Mostly Cloudy
12:53 PM 57.0 °F 52.0 °F 83% 30.00 in 10.0 mi NW 16.1 mph - N/A   Overcast
1:05 PM 57.2 °F 51.8 °F 82% 30.00 in 10.0 mi NW 18.4 mph - N/A   Overcast
1:31 PM 57.2 °F 50.0 °F 77% 30.00 in 10.0 mi WNW 12.7 mph - N/A   Scattered Clouds
1:53 PM 55.9 °F 50.0 °F 80% 30.01 in 10.0 mi WNW 12.7 mph - 0.00 in Rain Light Rain
2:53 PM 52.0 °F 50.0 °F 93% 30.04 in 3.0 mi NW 15.0 mph - 0.06 in Rain Light Rain
3:11 PM 51.8 °F 48.2 °F 88% 30.03 in 2.0 mi NW 11.5 mph 20.7 mph 0.06 in Rain Light Rain
3:33 PM 51.8 °F 50.0 °F 94% 29.99 in 7.0 mi North 10.4 mph - 0.07 in Rain Light Rain
3:45 PM 51.8 °F 50.0 °F 94% 30.00 in 7.0 mi NNW 11.5 mph - 0.07 in   Overcast
3:53 PM 52.0 °F 50.0 °F 93% 30.00 in 7.0 mi North 10.4 mph - 0.07 in   Mostly Cloudy
4:21 PM 51.8 °F 48.2 °F 88% 29.98 in 10.0 mi North 9.2 mph - 0.00 in   Overcast
4:53 PM 52.0 °F 48.0 °F 86% 30.01 in 10.0 mi NNW 9.2 mph - 0.00 in   Mostly Cloudy
5:16 PM 51.8 °F 48.2 °F 88% 30.06 in 6.0 mi WNW 13.8 mph - 0.01 in Rain Rain
5:53 PM 50.0 °F 46.9 °F 89% 30.05 in 4.0 mi NW 8.1 mph - 0.10 in Rain Rain
6:00 PM 50.0 °F 46.4 °F 87% 30.05 in 3.0 mi NW 6.9 mph - 0.02 in Rain Rain
6:17 PM 50.0 °F 46.4 °F 87% 30.05 in 5.0 mi NW 8.1 mph - 0.06 in Rain Rain
6:53 PM 48.9 °F 46.9 °F 93% 30.04 in 7.0 mi NNW 6.9 mph - 0.12 in Rain Light Rain
7:07 PM 48.2 °F 46.4 °F 93% 30.03 in 8.0 mi Calm Calm - 0.01 in Rain Light Rain
7:53 PM 48.9 °F 46.9 °F 93% 30.07 in 5.0 mi NW 6.9 mph - 0.12 in Rain Rain
8:53 PM 48.9 °F 46.9 °F 93% 30.11 in 10.0 mi NW 6.9 mph - 0.07 in   Scattered Clouds
9:53 PM 48.9 °F 46.9 °F 93% 30.13 in 10.0 mi NW 6.9 mph - N/A   Partly Cloudy
10:33 PM 48.2 °F 46.4 °F 93% 30.16 in 10.0 mi WNW 8.1 mph - N/A   Mostly Cloudy
10:53 PM 48.9 °F 46.9 °F 93% 30.15 in 10.0 mi NW 8.1 mph - N/A   Scattered Clouds
11:53 PM 48.9 °F 46.9 °F 93% 30.15 in 10.0 mi NW 6.9 mph - N/A   Partly Cloudy